Weather History for Ely, NV

Change the Weather History Date:

Sunday, August 25, 2013

  Actual Average Record
Temperature  
Mean Temperature 68 °F 64 °F  
Max Temperature 82 °F 84 °F 94 °F (1985)
Min Temperature 54 °F 45 °F 27 °F (1960)
Degree Days  
Heating Degree Days 0 2  
Month to date heating degree days 3 25  
Since 1 June heating degree days 103 223  
Since 1 July heating degree days 8 48  
Cooling Degree Days 3 2  
Month to date cooling degree days 80 71  
Year to date cooling degree days 348 206  
Since 1 June cooling degree days 348 205  
Growing Degree Days 18 (Base 50)    
Moisture  
Dew Point 45 °F    
Average Humidity 49    
Maximum Humidity 83    
Minimum Humidity 15    
Precipitation  
Precipitation 0.00 in 0.03 in 0.53 in (2012)
Month to date precipitation 0.37 0.74  
Year to date precipitation 3.73 6.48  
Snow  
Snow 0.00 in 0.00 in 0.00 in (1893)
Month to date snowfall 0.0 0.0  
Since 1 June snowfall 0.0 0.1  
Since 1 July snowfall 0.0 0.0  
Snow Depth 0.00 in    
Sea Level Pressure  
Sea Level Pressure 29.92 in    
Wind  
Wind Speed 17 mph (South)    
Max Wind Speed 28 mph    
Max Gust Speed 36 mph    
Visibility 10 miles    
Events      
T = Trace of Precipitation, MM = Missing Value Source: NWS Daily Summary

Daily Weather History Graph

Daily Weather History Graph

Search for Another Location

Airport:

Trip Planner

Search our weather history database for the weather conditions in past years. The results will help you decide how hot, cold, wet, or windy it might be!

Date:

Astronomy

Aug. 25, 2013 Rise Set
Actual Time 6:01 AM PDT 7:20 PM PDT
Civil Twilight 5:33 AM PDT 7:48 PM PDT
Nautical Twilight 5:00 AM PDT 8:21 PM PDT
Astronomical Twilight 4:25 AM PDT 8:56 PM PDT
Moon 9:56 PM PDT (8/25) 11:05 AM PDT (8/25)
Length of Visible Light 14h 14m
Length of Day
13h 18m
Waning Gibbous, 75% of the Moon is Illuminated
Aug 25
Waning Gibbous
Aug 28
Last Quarter
Sep 5
New
Sep 12
First Quarter
Sep 19
Full

Hourly Weather History & Observations

Time (PDT) Temp. Dew Point Humidity Pressure Visibility Wind Dir Wind Speed Gust Speed Precip Events Conditions
12:53 AM 57.0 °F 46.9 °F 69% 29.89 in 10.0 mi SSW 13.8 mph - N/A   Clear
1:53 AM 57.0 °F 46.9 °F 69% 29.93 in 10.0 mi South 11.5 mph - N/A   Clear
2:53 AM 55.9 °F 46.9 °F 72% 29.92 in 10.0 mi SSW 9.2 mph - N/A   Clear
3:53 AM 55.0 °F 46.9 °F 74% 29.96 in 10.0 mi SSW 11.5 mph - N/A   Clear
4:53 AM 55.9 °F 48.0 °F 75% 29.97 in 10.0 mi SSW 15.0 mph - N/A   Clear
5:53 AM 54.0 °F 48.0 °F 80% 30.00 in 10.0 mi South 10.4 mph - N/A   Clear
6:53 AM 55.9 °F 48.0 °F 75% 30.01 in 10.0 mi South 12.7 mph - 0.01 in   Clear
7:53 AM 62.1 °F 48.9 °F 62% 30.00 in 10.0 mi South 15.0 mph - N/A   Clear
8:53 AM 68.0 °F 48.9 °F 50% 29.97 in 10.0 mi South 19.6 mph 23.0 mph N/A   Clear
9:53 AM 72.0 °F 46.9 °F 41% 29.96 in 10.0 mi South 16.1 mph 26.5 mph N/A   Clear
10:53 AM 75.0 °F 45.0 °F 34% 29.94 in 10.0 mi South 15.0 mph - N/A   Clear
11:53 AM 77.0 °F 42.1 °F 29% 29.91 in 10.0 mi SSE 17.3 mph 26.5 mph N/A   Clear
12:53 PM 77.0 °F 42.1 °F 29% 29.90 in 10.0 mi SSE 23.0 mph 28.8 mph N/A   Clear
1:53 PM 79.0 °F 39.9 °F 25% 29.87 in 10.0 mi SSE 13.8 mph 24.2 mph N/A   Clear
2:53 PM 78.1 °F 41.0 °F 27% 29.85 in 10.0 mi SSE 17.3 mph 26.5 mph N/A   Scattered Clouds
3:53 PM 78.1 °F 39.0 °F 25% 29.84 in 10.0 mi South 16.1 mph 24.2 mph N/A   Scattered Clouds
4:53 PM 81.0 °F 28.0 °F 14% 29.83 in 10.0 mi SSW 21.9 mph 29.9 mph N/A   Partly Cloudy
5:53 PM 75.9 °F 41.0 °F 29% 29.85 in 10.0 mi SSE 20.7 mph 27.6 mph N/A   Clear
6:53 PM 71.1 °F 48.9 °F 45% 29.87 in 10.0 mi SSE 18.4 mph 29.9 mph N/A   Clear
7:53 PM 66.9 °F 48.9 °F 52% 29.90 in 10.0 mi SE 18.4 mph 31.1 mph N/A   Clear
8:53 PM 66.0 °F 51.1 °F 59% 29.90 in 10.0 mi SSE 25.3 mph 35.7 mph N/A   Clear
9:53 PM 63.0 °F 52.0 °F 67% 29.91 in 10.0 mi South 18.4 mph - N/A   Clear
10:53 PM 62.1 °F 52.0 °F 70% 29.91 in 10.0 mi SSE 18.4 mph 24.2 mph N/A   Clear
11:53 PM 61.0 °F 51.1 °F 70% 29.92 in 10.0 mi SSE 19.6 mph 25.3 mph N/A   Clear